| time (UTC) | temp F | wind direction | speed knots | gust knots | rain 1hr in | rain 24hr in | rain mn in | humidity % | barometer mb |
| 20260905073523 | 63 | 0 | 0.0 | 3.5 | 0.00 | 0.00 | 0.00 | 49 | 1013.7 |
| 20260905073045 | 63 | 167 | 0.9 | 3.5 | 0.00 | 0.00 | 0.00 | 49 | 1013.9 |
| 20260905072528 | 64 | 237 | 0.0 | 1.7 | 0.00 | 0.00 | 0.00 | 50 | 1013.8 |
| 20260905072028 | 64 | 237 | 0.9 | 1.7 | 0.00 | 0.00 | 0.00 | 46 | 1013.6 |
| 20260905071542 | 64 | 237 | 0.0 | 1.7 | 0.00 | 0.00 | 0.00 | 47 | 1013.6 |
| 20260905071023 | 65 | 0 | 0.0 | 1.7 | 0.00 | 0.00 | 0.00 | 48 | 1013.7 |
| 20260905070528 | 65 | 0 | 0.0 | 1.7 | 0.00 | 0.00 | 0.00 | 48 | 1013.6 |
| 20260905070057 | 66 | 0 | 0.9 | 1.7 | 0.00 | 0.00 | 0.00 | 44 | 1013.6 |
| 20260905065527 | 66 | 237 | 0.0 | 1.7 | 0.00 | 0.00 | 0.00 | 45 | 1013.7 |
| 20260905065026 | 67 | 237 | 0.0 | 1.7 | 0.00 | 0.00 | 0.00 | 43 | 1013.4 |
| 20260905064553 | 67 | 237 | 0.9 | 1.7 | 0.00 | 0.00 | 0.00 | 41 | 1013.5 |
| 20260905064024 | 67 | 0 | 0.0 | 1.7 | 0.00 | 0.00 | 0.00 | 43 | 1013.4 |
| 20260905063525 | 67 | 237 | 0.0 | 1.7 | 0.00 | 0.00 | 0.00 | 41 | 1013.4 |
| 20260905063047 | 67 | 0 | 0.0 | 2.6 | 0.00 | 0.00 | 0.00 | 39 | 1013.2 |
| 20260905062524 | 68 | 0 | 0.9 | 2.6 | 0.00 | 0.00 | 0.00 | 39 | 1013.2 |
| 20260905062025 | 68 | 245 | 0.9 | 2.6 | 0.00 | 0.00 | 0.00 | 37 | 1013.1 |
| 20260905061546 | 69 | 0 | 0.0 | 2.6 | 0.00 | 0.00 | 0.00 | 37 | 1012.7 |
| 20260905061032 | 69 | 0 | 0.9 | 3.5 | 0.00 | 0.00 | 0.00 | 36 | 1012.6 |
| 20260905060528 | 70 | 340 | 1.7 | 3.5 | 0.00 | 0.00 | 0.00 | 35 | 1012.4 |
| 20260905060104 | 71 | 336 | 0.0 | 4.3 | 0.00 | 0.00 | 0.00 | 34 | 1012.3 |
| 20260905055527 | 71 | 0 | 0.9 | 5.2 | 0.00 | 0.00 | 0.00 | 34 | 1012.4 |
| 20260905055028 | 72 | 33 | 0.9 | 7.0 | 0.00 | 0.00 | 0.00 | 33 | 1012.4 |
| 20260905054554 | 72 | 50 | 1.7 | 7.0 | 0.00 | 0.00 | 0.00 | 32 | 1012.5 |
| 20260905054028 | 72 | 345 | 3.5 | 6.1 | 0.00 | 0.00 | 0.00 | 33 | 1012.5 |
| 20260905053528 | 72 | 342 | 2.6 | 7.0 | 0.00 | 0.00 | 0.00 | 32 | 1012.4 |
| 20260905053056 | 73 | 357 | 2.6 | 7.0 | 0.00 | 0.00 | 0.00 | 31 | 1012.2 |
| 20260905052527 | 73 | 325 | 2.6 | 6.1 | 0.00 | 0.00 | 0.00 | 32 | 1011.9 |
| 20260905052025 | 73 | 249 | 2.6 | 6.1 | 0.00 | 0.00 | 0.00 | 32 | 1011.6 |
| 20260905051552 | 73 | 309 | 0.9 | 3.5 | 0.00 | 0.00 | 0.00 | 31 | 1011.5 |
| 20260905051024 | 73 | 330 | 0.9 | 7.0 | 0.00 | 0.00 | 0.00 | 31 | 1011.5 |
| 20260905050529 | 74 | 291 | 0.9 | 7.0 | 0.00 | 0.00 | 0.00 | 30 | 1011.4 |
| 20260905050045 | 74 | 256 | 0.9 | 7.0 | 0.00 | 0.00 | 0.00 | 30 | 1011.3 |
| 20260905045527 | 75 | 248 | 1.7 | 7.0 | 0.00 | 0.00 | 0.00 | 30 | 1011.5 |
| 20260905045032 | 74 | 250 | 3.5 | 8.7 | 0.00 | 0.00 | 0.00 | 30 | 1011.6 |
| 20260905044552 | 74 | 250 | 3.5 | 8.7 | 0.00 | 0.00 | 0.00 | 31 | 1011.6 |
| 20260905044027 | 74 | 218 | 2.6 | 7.0 | 0.00 | 0.00 | 0.00 | 31 | 1011.6 |
| 20260905043528 | 73 | 4 | 1.7 | 7.0 | 0.00 | 0.00 | 0.00 | 30 | 1011.3 |
| 20260905043104 | 73 | 278 | 1.7 | 7.0 | 0.00 | 0.00 | 0.00 | 31 | 1011.5 |
| 20260905042528 | 73 | 274 | 0.9 | 6.1 | 0.00 | 0.00 | 0.00 | 31 | 1011.3 |
| 20260905042024 | 72 | 127 | 0.9 | 6.1 | 0.00 | 0.00 | 0.00 | 32 | 1011.4 |
| 20260905041544 | 72 | 56 | 0.9 | 5.2 | 0.00 | 0.00 | 0.00 | 32 | 1011.2 |
| 20260905041025 | 72 | 172 | 0.9 | 5.2 | 0.00 | 0.00 | 0.00 | 32 | 1011.3 |
| 20260905040526 | 71 | 0 | 0.9 | 7.0 | 0.00 | 0.00 | 0.00 | 33 | 1011.3 |
| 20260905040052 | 71 | 213 | 0.9 | 7.0 | 0.00 | 0.00 | 0.00 | 36 | 1011.2 |
| 20260905035528 | 71 | 207 | 1.7 | 4.3 | 0.00 | 0.00 | 0.00 | 36 | 1011.2 |
| 20260905035028 | 71 | 176 | 1.7 | 4.3 | 0.00 | 0.00 | 0.00 | 36 | 1011.2 |
| 20260905034544 | 71 | 193 | 0.9 | 8.7 | 0.00 | 0.00 | 0.00 | 36 | 1011.1 |
| 20260905034028 | 71 | 239 | 2.6 | 8.7 | 0.00 | 0.00 | 0.00 | 33 | 1011.1 |
| 20260905033527 | 71 | 252 | 3.5 | 8.7 | 0.00 | 0.00 | 0.00 | 31 | 1011.0 |
| 20260905033044 | 71 | 262 | 0.0 | 1.7 | 0.00 | 0.00 | 0.00 | 30 | 1010.8 |
| 20260905032528 | 71 | 262 | 0.0 | 1.7 | 0.00 | 0.00 | 0.00 | 31 | 1010.8 |
| 20260905032025 | 71 | 0 | 0.0 | 1.7 | 0.00 | 0.00 | 0.00 | 31 | 1010.7 |
| 20260905031553 | 72 | 0 | 0.0 | 1.7 | 0.00 | 0.00 | 0.00 | 29 | 1010.7 |
| 20260905031027 | 72 | 262 | 0.9 | 2.6 | 0.00 | 0.00 | 0.00 | 29 | 1010.6 |
| 20260905030529 | 72 | 0 | 0.9 | 2.6 | 0.00 | 0.00 | 0.00 | 29 | 1010.4 |
| 20260905030049 | 73 | 1 | 0.0 | 1.7 | 0.00 | 0.00 | 0.00 | 30 | 1010.3 |
| 20260905025527 | 74 | 0 | 0.0 | 1.7 | 0.00 | 0.00 | 0.00 | 27 | 1010.2 |
| 20260905025027 | 74 | 0 | 0.0 | 1.7 | 0.00 | 0.00 | 0.00 | 27 | 1010.2 |
| 20260905024543 | 75 | 0 | 0.0 | 2.6 | 0.00 | 0.00 | 0.00 | 29 | 1010.0 |
| 20260905024025 | 76 | 0 | 0.9 | 2.6 | 0.00 | 0.00 | 0.00 | 26 | 1010.0 |
| 20260905023532 | 77 | 0 | 0.0 | 1.7 | 0.00 | 0.00 | 0.00 | 27 | 1009.8 |
| 20260905023045 | 77 | 0 | 0.0 | 2.6 | 0.00 | 0.00 | 0.00 | 25 | 1009.8 |
| 20260905022531 | 77 | 0 | 0.0 | 2.6 | 0.00 | 0.00 | 0.00 | 25 | 1009.7 |
| 20260905022026 | 78 | 229 | 0.0 | 2.6 | 0.00 | 0.00 | 0.00 | 27 | 1009.6 |
| 20260905021553 | 79 | 0 | 0.0 | 1.7 | 0.00 | 0.00 | 0.00 | 25 | 1009.4 |
| 20260905021024 | 80 | 0 | 0.0 | 0.9 | 0.00 | 0.00 | 0.00 | 25 | 1009.3 |
| 20260905020527 | 80 | 0 | 0.0 | 0.9 | 0.00 | 0.00 | 0.00 | 22 | 1009.2 |
| 20260905020053 | 81 | 181 | 0.0 | 2.6 | 0.00 | 0.00 | 0.00 | 22 | 1009.2 |
| 20260905015524 | 82 | 0 | 0.9 | 3.5 | 0.00 | 0.00 | 0.00 | 21 | 1009.2 |
| 20260905015026 | 83 | 181 | 0.9 | 3.5 | 0.00 | 0.00 | 0.00 | 21 | 1009.1 |
| 20260905014544 | 84 | 190 | 0.0 | 4.3 | 0.00 | 0.00 | 0.00 | 20 | 1009.0 |
| 20260905014029 | 84 | 123 | 1.7 | 4.3 | 0.00 | 0.00 | 0.00 | 20 | 1009.0 |
| 20260905013525 | 85 | 0 | 0.9 | 2.6 | 0.00 | 0.00 | 0.00 | 19 | 1009.0 |
| 20260905013047 | 85 | 83 | 0.0 | 2.6 | 0.00 | 0.00 | 0.00 | 18 | 1008.9 |
| 20260905012526 | 85 | 0 | 0.9 | 2.6 | 0.00 | 0.00 | 0.00 | 19 | 1008.9 |
| 20260905012025 | 86 | 198 | 0.0 | 3.5 | 0.00 | 0.00 | 0.00 | 20 | 1008.8 |
| 20260905011607 | 87 | 0 | 0.9 | 5.2 | 0.00 | 0.00 | 0.00 | 20 | 1008.7 |
| 20260905011025 | 87 | 184 | 0.9 | 11.3 | 0.00 | 0.00 | 0.00 | 19 | 1008.7 |
| 20260905010528 | 88 | 190 | 3.5 | 11.3 | 0.00 | 0.00 | 0.00 | 18 | 1008.5 |
| 20260905010045 | 88 | 120 | 6.1 | 11.3 | 0.00 | 0.00 | 0.00 | 16 | 1008.6 |
| 20260905005525 | 88 | 75 | 3.5 | 12.2 | 0.00 | 0.00 | 0.00 | 17 | 1008.3 |
| 20260905005028 | 88 | 107 | 2.6 | 12.2 | 0.00 | 0.00 | 0.00 | 17 | 1008.5 |
| 20260905004545 | 88 | 132 | 4.3 | 10.4 | 0.00 | 0.00 | 0.00 | 18 | 1008.3 |
| 20260905004024 | 88 | 137 | 3.5 | 8.7 | 0.00 | 0.00 | 0.00 | 18 | 1008.3 |
| 20260905003524 | 88 | 110 | 5.2 | 9.6 | 0.00 | 0.00 | 0.00 | 18 | 1008.3 |
| 20260905003056 | 89 | 126 | 4.3 | 11.3 | 0.00 | 0.00 | 0.00 | 16 | 1008.3 |
| 20260905002526 | 89 | 77 | 4.3 | 11.3 | 0.00 | 0.00 | 0.00 | 17 | 1008.2 |
| 20260905002028 | 89 | 98 | 4.3 | 11.3 | 0.00 | 0.00 | 0.00 | 17 | 1008.3 |
| 20260905001553 | 89 | 124 | 6.1 | 11.3 | 0.00 | 0.00 | 0.00 | 17 | 1008.3 |
| 20260905001027 | 89 | 142 | 6.1 | 11.3 | 0.00 | 0.00 | 0.00 | 16 | 1008.3 |
| 20260905000526 | 89 | 133 | 4.3 | 10.4 | 0.00 | 0.00 | 0.00 | 16 | 1008.3 |
| 20260905000048 | 89 | 118 | 4.3 | 13.0 | 0.00 | 0.00 | 0.00 | 18 | 1008.3 |
| 20260904235527 | 89 | 65 | 5.2 | 13.0 | 0.00 | 0.00 | 0.00 | 17 | 1008.2 |
| 20260904235027 | 89 | 96 | 4.3 | 13.0 | 0.00 | 0.00 | 0.00 | 17 | 1008.5 |
| 20260904234546 | 89 | 97 | 5.2 | 13.0 | 0.00 | 0.00 | 0.00 | 18 | 1008.5 |
| 20260904234024 | 89 | 127 | 5.2 | 13.0 | 0.00 | 0.00 | 0.00 | 15 | 1008.5 |
| 20260904233528 | 89 | 74 | 6.1 | 13.0 | 0.00 | 0.00 | 0.00 | 17 | 1008.5 |
| 20260904233053 | 89 | 95 | 3.5 | 10.4 | 0.00 | 0.00 | 0.00 | 18 | 1008.6 |
| 20260904232530 | 89 | 146 | 5.2 | 10.4 | 0.00 | 0.00 | 0.00 | 16 | 1008.6 |
| 20260904232027 | 89 | 101 | 4.3 | 10.4 | 0.00 | 0.00 | 0.00 | 20 | 1008.5 |
| 20260904231548 | 89 | 160 | 4.3 | 11.3 | 0.00 | 0.00 | 0.00 | 16 | 1008.6 |
| 20260904231027 | 90 | 124 | 6.1 | 11.3 | 0.00 | 0.00 | 0.00 | 16 | 1008.6 |
| 20260904230531 | 90 | 105 | 4.3 | 7.8 | 0.00 | 0.00 | 0.00 | 17 | 1008.6 |
| 20260904230049 | 90 | 154 | 1.7 | 7.0 | 0.00 | 0.00 | 0.00 | 17 | 1008.6 |
| 20260904225525 | 90 | 90 | 1.7 | 7.8 | 0.00 | 0.00 | 0.00 | 20 | 1008.8 |
| 20260904225025 | 90 | 169 | 3.5 | 7.8 | 0.00 | 0.00 | 0.00 | 16 | 1008.7 |
| 20260904224544 | 90 | 139 | 3.5 | 7.8 | 0.00 | 0.00 | 0.00 | 18 | 1008.8 |
| 20260904224027 | 90 | 128 | 1.7 | 7.8 | 0.00 | 0.00 | 0.00 | 17 | 1008.8 |
| 20260904223526 | 90 | 117 | 2.6 | 6.1 | 0.00 | 0.00 | 0.00 | 15 | 1008.8 |
| 20260904223044 | 90 | 59 | 1.7 | 6.1 | 0.00 | 0.00 | 0.00 | 18 | 1008.9 |
| 20260904222524 | 90 | 68 | 1.7 | 7.0 | 0.00 | 0.00 | 0.00 | 19 | 1009.0 |
| 20260904222025 | 89 | 201 | 2.6 | 9.6 | 0.00 | 0.00 | 0.00 | 16 | 1009.0 |
| 20260904221544 | 89 | 64 | 3.5 | 9.6 | 0.00 | 0.00 | 0.00 | 17 | 1009.1 |
| 20260904221027 | 89 | 96 | 3.5 | 8.7 | 0.00 | 0.00 | 0.00 | 18 | 1009.1 |
| 20260904220527 | 89 | 87 | 3.5 | 8.7 | 0.00 | 0.00 | 0.00 | 16 | 1009.1 |
| 20260904220105 | 89 | 85 | 5.2 | 8.7 | 0.00 | 0.00 | 0.00 | 16 | 1009.2 |
| 20260904215530 | 89 | 125 | 2.6 | 7.8 | 0.00 | 0.00 | 0.00 | 22 | 1009.2 |
| 20260904215026 | 89 | 106 | 2.6 | 5.2 | 0.00 | 0.00 | 0.00 | 15 | 1009.2 |
| 20260904214546 | 89 | 79 | 0.9 | 4.3 | 0.00 | 0.00 | 0.00 | 16 | 1009.1 |
| 20260904214026 | 89 | 41 | 1.7 | 4.3 | 0.00 | 0.00 | 0.00 | 15 | 1009.1 |
| 20260904213527 | 89 | 33 | 0.0 | 8.7 | 0.00 | 0.00 | 0.00 | 17 | 1009.1 |
| 20260904213051 | 89 | 159 | 1.7 | 8.7 | 0.00 | 0.00 | 0.00 | 20 | 1009.1 |
| 20260904212529 | 89 | 69 | 1.7 | 6.1 | 0.00 | 0.00 | 0.00 | 16 | 1009.2 |
| 20260904212028 | 88 | 70 | 0.9 | 5.2 | 0.00 | 0.00 | 0.00 | 17 | 1009.1 |
| 20260904211545 | 88 | 287 | 0.0 | 11.3 | 0.00 | 0.00 | 0.00 | 20 | 1009.2 |
| 20260904211030 | 88 | 99 | 2.6 | 11.3 | 0.00 | 0.00 | 0.00 | 18 | 1009.2 |
| 20260904210526 | 88 | 175 | 4.3 | 8.7 | 0.00 | 0.00 | 0.00 | 18 | 1009.2 |
| 20260904210045 | 88 | 131 | 3.5 | 7.0 | 0.00 | 0.00 | 0.00 | 22 | 1009.4 |
| 20260904205529 | 88 | 325 | 2.6 | 6.1 | 0.00 | 0.00 | 0.00 | 18 | 1009.3 |
| 20260904205028 | 88 | 63 | 1.7 | 6.1 | 0.00 | 0.00 | 0.00 | 17 | 1009.4 |
| 20260904204544 | 88 | 0 | 2.6 | 10.4 | 0.00 | 0.00 | 0.00 | 16 | 1009.3 |
| 20260904204027 | 87 | 122 | 5.2 | 10.4 | 0.00 | 0.00 | 0.00 | 18 | 1009.4 |
| 20260904203527 | 87 | 91 | 2.6 | 7.0 | 0.00 | 0.00 | 0.00 | 18 | 1009.4 |
| 20260904203049 | 87 | 40 | 2.6 | 7.0 | 0.00 | 0.00 | 0.00 | 18 | 1009.4 |
| 20260904202526 | 87 | 25 | 0.9 | 5.2 | 0.00 | 0.00 | 0.00 | 19 | 1009.4 |
| 20260904202025 | 87 | 49 | 0.9 | 6.1 | 0.00 | 0.00 | 0.00 | 18 | 1009.4 |
| 20260904201600 | 87 | 349 | 1.7 | 6.1 | 0.00 | 0.00 | 0.00 | 21 | 1009.5 |
| 20260904201031 | 87 | 90 | 2.6 | 8.7 | 0.00 | 0.00 | 0.00 | 17 | 1009.6 |
| 20260904200524 | 87 | 82 | 3.5 | 8.7 | 0.00 | 0.00 | 0.00 | 22 | 1009.7 |
| 20260904200050 | 86 | 77 | 3.5 | 10.4 | 0.00 | 0.00 | 0.00 | 18 | 1009.6 |
| 20260904195525 | 86 | 142 | 5.2 | 10.4 | 0.00 | 0.00 | 0.00 | 21 | 1009.6 |
| 20260904195026 | 86 | 359 | 2.6 | 7.0 | 0.00 | 0.00 | 0.00 | 22 | 1009.7 |
| 20260904194542 | 86 | 146 | 3.5 | 7.0 | 0.00 | 0.00 | 0.00 | 19 | 1009.7 |
| 20260904194031 | 86 | 74 | 2.6 | 7.0 | 0.00 | 0.00 | 0.00 | 20 | 1009.8 |
| 20260904193527 | 86 | 84 | 3.5 | 6.1 | 0.00 | 0.00 | 0.00 | 19 | 1009.9 |
| 20260904193050 | 86 | 148 | 2.6 | 6.1 | 0.00 | 0.00 | 0.00 | 21 | 1009.9 |
| 20260904192533 | 86 | 94 | 3.5 | 6.1 | 0.00 | 0.00 | 0.00 | 19 | 1009.9 |
| 20260904192028 | 85 | 77 | 2.6 | 7.0 | 0.00 | 0.00 | 0.00 | 21 | 1010.1 |
| 20260904191544 | 85 | 89 | 3.5 | 7.0 | 0.00 | 0.00 | 0.00 | 24 | 1010.0 |
| 20260904191025 | 85 | 193 | 2.6 | 6.1 | 0.00 | 0.00 | 0.00 | 22 | 1010.1 |
| 20260904190525 | 85 | 220 | 1.7 | 8.7 | 0.00 | 0.00 | 0.00 | 24 | 1010.1 |
| 20260904190042 | 85 | 136 | 2.6 | 8.7 | 0.00 | 0.00 | 0.00 | 24 | 1010.1 |
| 20260904185524 | 85 | 311 | 1.7 | 7.0 | 0.00 | 0.00 | 0.00 | 25 | 1010.1 |
| 20260904185024 | 85 | 143 | 2.6 | 8.7 | 0.00 | 0.00 | 0.00 | 22 | 1010.3 |
| 20260904184544 | 84 | 64 | 4.3 | 8.7 | 0.00 | 0.00 | 0.00 | 24 | 1010.4 |
| 20260904184029 | 84 | 127 | 2.6 | 8.7 | 0.00 | 0.00 | 0.00 | 27 | 1010.3 |
| 20260904183530 | 84 | 89 | 0.9 | 5.2 | 0.00 | 0.00 | 0.00 | 22 | 1010.4 |
| 20260904183058 | 83 | 120 | 1.7 | 5.2 | 0.00 | 0.00 | 0.00 | 24 | 1010.7 |
| 20260904182526 | 83 | 61 | 1.7 | 5.2 | 0.00 | 0.00 | 0.00 | 22 | 1010.6 |
| 20260904182030 | 83 | 54 | 1.7 | 5.2 | 0.00 | 0.00 | 0.00 | 22 | 1010.7 |
| 20260904181544 | 83 | 42 | 2.6 | 5.2 | 0.00 | 0.00 | 0.00 | 21 | 1010.8 |
| 20260904181025 | 83 | 127 | 2.6 | 10.4 | 0.00 | 0.00 | 0.00 | 24 | 1010.7 |
| 20260904180528 | 83 | 89 | 3.5 | 10.4 | 0.00 | 0.00 | 0.00 | 22 | 1010.9 |
| 20260904180056 | 83 | 121 | 3.5 | 9.6 | 0.00 | 0.00 | 0.00 | 25 | 1010.9 |
| 20260904175525 | 83 | 150 | 2.6 | 7.8 | 0.00 | 0.00 | 0.00 | 30 | 1011.0 |
| 20260904175027 | 82 | 103 | 1.7 | 6.1 | 0.00 | 0.00 | 0.00 | 28 | 1011.0 |
| 20260904174557 | 82 | 96 | 1.7 | 4.3 | 0.00 | 0.00 | 0.00 | 24 | 1011.0 |
| 20260904174027 | 81 | 111 | 1.7 | 4.3 | 0.00 | 0.00 | 0.00 | 23 | 1011.2 |
| 20260904173527 | 81 | 112 | 1.7 | 7.0 | 0.00 | 0.00 | 0.00 | 27 | 1011.3 |
| 20260904173112 | 80 | 118 | 1.7 | 7.0 | 0.00 | 0.00 | 0.00 | 28 | 1011.3 |
| 20260904172532 | 80 | 141 | 3.5 | 7.0 | 0.00 | 0.00 | 0.00 | 26 | 1011.3 |
| 20260904172027 | 80 | 179 | 2.6 | 7.0 | 0.00 | 0.00 | 0.00 | 29 | 1011.5 |
| 20260904171553 | 79 | 91 | 1.7 | 7.0 | 0.00 | 0.00 | 0.00 | 25 | 1011.3 |
| 20260904171024 | 79 | 147 | 2.6 | 7.8 | 0.00 | 0.00 | 0.00 | 26 | 1011.3 |
| 20260904170524 | 79 | 104 | 4.3 | 8.7 | 0.00 | 0.00 | 0.00 | 24 | 1011.3 |
| 20260904170049 | 79 | 72 | 4.3 | 8.7 | 0.00 | 0.00 | 0.00 | 24 | 1011.4 |
| 20260904165524 | 78 | 82 | 3.5 | 8.7 | 0.00 | 0.00 | 0.00 | 28 | 1011.4 |
| 20260904165026 | 78 | 86 | 3.5 | 9.6 | 0.00 | 0.00 | 0.00 | 31 | 1011.5 |
| 20260904164555 | 77 | 158 | 4.3 | 9.6 | 0.00 | 0.00 | 0.00 | 26 | 1011.5 |
| 20260904164027 | 77 | 84 | 4.3 | 7.8 | 0.00 | 0.00 | 0.00 | 28 | 1011.5 |
| 20260904163534 | 77 | 90 | 4.3 | 7.8 | 0.00 | 0.00 | 0.00 | 29 | 1011.5 |
| 20260904163048 | 76 | 91 | 2.6 | 7.0 | 0.00 | 0.00 | 0.00 | 31 | 1011.5 |
| 20260904162529 | 75 | 138 | 3.5 | 7.0 | 0.00 | 0.00 | 0.00 | 31 | 1011.5 |
| 20260904162024 | 74 | 117 | 3.5 | 7.0 | 0.00 | 0.00 | 0.00 | 32 | 1011.5 |
| 20260904161543 | 72 | 0 | 0.0 | 2.6 | 0.00 | 0.00 | 0.00 | 41 | 1011.5 |
| 20260904161025 | 72 | 250 | 0.0 | 2.6 | 0.00 | 0.00 | 0.00 | 47 | 1011.3 |
| 20260904160528 | 71 | 236 | 0.9 | 2.6 | 0.00 | 0.00 | 0.00 | 44 | 1011.4 |
| 20260904160044 | 70 | 221 | 0.0 | 1.7 | 0.00 | 0.00 | 0.00 | 42 | 1011.4 |
| 20260904155525 | 70 | 0 | 0.0 | 3.5 | 0.00 | 0.00 | 0.00 | 41 | 1011.4 |
| 20260904155025 | 70 | 333 | 0.9 | 3.5 | 0.00 | 0.00 | 0.00 | 44 | 1011.5 |
| 20260904154543 | 69 | 335 | 0.9 | 3.5 | 0.00 | 0.00 | 0.00 | 44 | 1011.4 |
| 20260904154025 | 69 | 0 | 0.0 | 3.5 | 0.00 | 0.00 | 0.00 | 47 | 1011.4 |
| 20260904153527 | 68 | 0 | 0.0 | 1.7 | 0.00 | 0.00 | 0.00 | 45 | 1011.3 |
| 20260904153055 | 67 | 217 | 0.0 | 2.6 | 0.00 | 0.00 | 0.00 | 42 | 1011.4 |
| 20260904152525 | 67 | 0 | 0.9 | 2.6 | 0.00 | 0.00 | 0.00 | 43 | 1011.3 |
| 20260904152024 | 66 | 0 | 0.0 | 2.6 | 0.00 | 0.00 | 0.00 | 42 | 1011.3 |
| 20260904151547 | 65 | 252 | 0.9 | 2.6 | 0.00 | 0.00 | 0.00 | 50 | 1011.3 |
| 20260904151028 | 64 | 55 | 0.0 | 1.7 | 0.00 | 0.00 | 0.00 | 53 | 1011.3 |
| 20260904150529 | 63 | 0 | 0.0 | 1.7 | 0.00 | 0.00 | 0.00 | 47 | 1011.3 |
| 20260904150056 | 63 | 94 | 0.0 | 1.7 | 0.00 | 0.00 | 0.00 | 53 | 1011.4 |
| 20260904145527 | 62 | 0 | 0.0 | 1.7 | 0.00 | 0.00 | 0.00 | 51 | 1011.4 |
| 20260904145030 | 61 | 0 | 0.0 | 2.6 | 0.00 | 0.00 | 0.00 | 60 | 1011.5 |
| 20260904144549 | 60 | 0 | 0.9 | 2.6 | 0.00 | 0.00 | 0.00 | 57 | 1011.5 |
| 20260904144028 | 60 | 46 | 0.0 | 0.9 | 0.00 | 0.00 | 0.00 | 58 | 1011.5 |
| 20260904143524 | 59 | 0 | 0.0 | 0.0 | 0.00 | 0.00 | 0.00 | 59 | 1011.5 |
| 20260904143043 | 59 | 0 | 0.0 | 1.7 | 0.00 | 0.00 | 0.00 | 64 | 1011.6 |
| 20260904142525 | 58 | 0 | 0.0 | 1.7 | 0.00 | 0.00 | 0.00 | 66 | 1011.5 |
| 20260904142026 | 57 | 94 | 0.0 | 1.7 | 0.00 | 0.00 | 0.00 | 66 | 1011.5 |
| 20260904141544 | 57 | 0 | 0.0 | 0.0 | 0.00 | 0.00 | 0.00 | 64 | 1011.5 |
| 20260904141025 | 55 | 0 | 0.0 | 0.0 | 0.00 | 0.00 | 0.00 | 69 | 1011.5 |
| 20260904140524 | 54 | 0 | 0.0 | 0.0 | 0.00 | 0.00 | 0.00 | 69 | 1011.4 |
| 20260904140047 | 53 | 0 | 0.0 | 2.6 | 0.00 | 0.00 | 0.00 | 72 | 1011.4 |
| 20260904135527 | 52 | 0 | 0.0 | 3.5 | 0.00 | 0.00 | 0.00 | 72 | 1011.4 |
| 20260904135027 | 51 | 0 | 0.9 | 3.5 | 0.00 | 0.00 | 0.00 | 71 | 1011.3 |
| 20260904134548 | 50 | 216 | 1.7 | 3.5 | 0.00 | 0.00 | 0.00 | 73 | 1011.3 |
| 20260904134025 | 50 | 257 | 1.7 | 3.5 | 0.00 | 0.00 | 0.00 | 74 | 1011.0 |
| 20260904133525 | 49 | 0 | 0.0 | 0.0 | 0.00 | 0.00 | 0.00 | 76 | 1011.1 |
| 20260904133047 | 48 | 0 | 0.0 | 0.0 | 0.00 | 0.00 | 0.00 | 76 | 1011.0 |
| 20260904132525 | 47 | 0 | 0.0 | 0.0 | 0.00 | 0.00 | 0.00 | 77 | 1010.9 |
| 20260904132025 | 47 | 0 | 0.0 | 0.0 | 0.00 | 0.00 | 0.00 | 78 | 1011.0 |
| 20260904131545 | 46 | 0 | 0.0 | 0.0 | 0.00 | 0.00 | 0.00 | 79 | 1010.8 |
| 20260904131026 | 46 | 0 | 0.0 | 0.0 | 0.00 | 0.00 | 0.00 | 77 | 1010.6 |
| 20260904130527 | 46 | 0 | 0.0 | 0.0 | 0.00 | 0.00 | 0.00 | 77 | 1010.5 |
| 20260904130052 | 46 | 0 | 0.0 | 0.0 | 0.00 | 0.00 | 0.00 | 78 | 1010.6 |
| 20260904125529 | 46 | 0 | 0.0 | 0.0 | 0.00 | 0.00 | 0.00 | 80 | 1010.4 |
| 20260904125028 | 46 | 0 | 0.0 | 0.0 | 0.00 | 0.00 | 0.00 | 81 | 1010.4 |
| 20260904124556 | 46 | 0 | 0.0 | 0.0 | 0.00 | 0.00 | 0.00 | 81 | 1010.3 |
| 20260904124023 | 46 | 0 | 0.0 | 0.0 | 0.00 | 0.00 | 0.00 | 81 | 1010.3 |
| 20260904123525 | 46 | 0 | 0.0 | 0.0 | 0.00 | 0.00 | 0.00 | 80 | 1010.1 |
| 20260904123045 | 46 | 0 | 0.0 | 0.0 | 0.00 | 0.00 | 0.00 | 81 | 1010.1 |
| 20260904122524 | 46 | 0 | 0.0 | 0.0 | 0.00 | 0.00 | 0.00 | 80 | 1010.2 |
| 20260904122024 | 46 | 0 | 0.0 | 0.0 | 0.00 | 0.00 | 0.00 | 80 | 1010.1 |
| 20260904121543 | 46 | 0 | 0.0 | 0.0 | 0.00 | 0.00 | 0.00 | 78 | 1010.0 |
| 20260904121024 | 47 | 0 | 0.0 | 0.0 | 0.00 | 0.00 | 0.00 | 77 | 1010.0 |
| 20260904120524 | 47 | 0 | 0.0 | 1.7 | 0.00 | 0.00 | 0.00 | 77 | 1009.9 |
| 20260904120054 | 47 | 0 | 0.0 | 1.7 | 0.00 | 0.00 | 0.00 | 77 | 1010.0 |
| 20260904115528 | 47 | 358 | 0.0 | 1.7 | 0.00 | 0.00 | 0.00 | 76 | 1009.9 |
| 20260904115028 | 48 | 0 | 0.0 | 0.0 | 0.00 | 0.00 | 0.00 | 76 | 1009.9 |
| 20260904114546 | 48 | 0 | 0.0 | 0.9 | 0.00 | 0.00 | 0.00 | 75 | 1009.8 |
| 20260904114028 | 48 | 0 | 0.0 | 0.9 | 0.00 | 0.00 | 0.00 | 75 | 1009.9 |
| 20260904113524 | 48 | 0 | 0.0 | 0.9 | 0.00 | 0.00 | 0.00 | 75 | 1009.8 |
| 20260904113050 | 48 | 0 | 0.0 | 0.0 | 0.00 | 0.00 | 0.00 | 74 | 1009.7 |
| 20260904112525 | 48 | 0 | 0.0 | 0.9 | 0.00 | 0.00 | 0.00 | 73 | 1009.8 |
| 20260904112026 | 48 | 0 | 0.0 | 2.6 | 0.00 | 0.00 | 0.00 | 73 | 1009.8 |
| 20260904111544 | 49 | 0 | 0.9 | 2.6 | 0.00 | 0.00 | 0.00 | 73 | 1009.7 |
| 20260904111024 | 49 | 269 | 1.7 | 2.6 | 0.00 | 0.00 | 0.00 | 72 | 1009.9 |
| 20260904110525 | 49 | 0 | 0.9 | 2.6 | 0.00 | 0.00 | 0.00 | 72 | 1009.7 |
| 20260904110050 | 49 | 0 | 0.0 | 3.5 | 0.00 | 0.00 | 0.00 | 72 | 1009.8 |
| 20260904105527 | 49 | 83 | 0.9 | 3.5 | 0.00 | 0.00 | 0.00 | 72 | 1009.8 |
| 20260904105027 | 49 | 79 | 0.0 | 2.6 | 0.00 | 0.00 | 0.00 | 72 | 1009.8 |
| 20260904104543 | 50 | 0 | 0.0 | 2.6 | 0.00 | 0.00 | 0.00 | 69 | 1009.7 |
| 20260904104026 | 50 | 79 | 0.9 | 3.5 | 0.00 | 0.00 | 0.00 | 70 | 1009.8 |
| 20260904103528 | 50 | 94 | 0.0 | 3.5 | 0.00 | 0.00 | 0.00 | 71 | 1009.6 |
| 20260904103044 | 50 | 94 | 0.9 | 3.5 | 0.00 | 0.00 | 0.00 | 70 | 1009.7 |
| 20260904102523 | 50 | 257 | 0.9 | 2.6 | 0.00 | 0.00 | 0.00 | 72 | 1009.5 |
| 20260904102023 | 50 | 248 | 0.9 | 2.6 | 0.00 | 0.00 | 0.00 | 71 | 1009.4 |
| 20260904101555 | 50 | 248 | 0.9 | 2.6 | 0.00 | 0.00 | 0.00 | 71 | 1009.4 |
| 20260904101028 | 50 | 248 | 0.0 | 1.7 | 0.00 | 0.00 | 0.00 | 73 | 1009.5 |
| 20260904100530 | 50 | 248 | 0.0 | 1.7 | 0.00 | 0.00 | 0.00 | 72 | 1009.5 |
| 20260904100044 | 50 | 0 | 0.0 | 1.7 | 0.00 | 0.00 | 0.00 | 72 | 1009.5 |
| 20260904095527 | 51 | 247 | 0.9 | 2.6 | 0.00 | 0.00 | 0.00 | 71 | 1009.5 |
| 20260904095026 | 51 | 0 | 0.0 | 2.6 | 0.00 | 0.00 | 0.00 | 70 | 1009.4 |
| 20260904094554 | 51 | 248 | 0.9 | 2.6 | 0.00 | 0.00 | 0.00 | 69 | 1009.4 |
| 20260904094024 | 51 | 221 | 0.9 | 2.6 | 0.00 | 0.00 | 0.00 | 68 | 1009.4 |
| 20260904093524 | 51 | 0 | 0.0 | 2.6 | 0.00 | 0.00 | 0.00 | 70 | 1009.4 |
| 20260904093057 | 52 | 220 | 0.0 | 2.6 | 0.00 | 0.00 | 0.00 | 69 | 1009.4 |
| 20260904092528 | 52 | 218 | 0.9 | 3.5 | 0.00 | 0.00 | 0.00 | 67 | 1009.2 |
| 20260904092024 | 51 | 216 | 0.9 | 3.5 | 0.00 | 0.00 | 0.00 | 69 | 1009.5 |
| 20260904091550 | 51 | 176 | 0.9 | 2.6 | 0.00 | 0.00 | 0.00 | 69 | 1009.5 |
| 20260904091028 | 51 | 0 | 0.0 | 0.0 | 0.00 | 0.00 | 0.00 | 68 | 1009.2 |
| 20260904090526 | 52 | 0 | 0.0 | 0.0 | 0.00 | 0.00 | 0.00 | 70 | 1009.2 |
| 20260904090048 | 52 | 0 | 0.0 | 0.0 | 0.00 | 0.00 | 0.00 | 67 | 1009.2 |
| 20260904085526 | 52 | 0 | 0.0 | 0.0 | 0.00 | 0.00 | 0.00 | 67 | 1009.3 |
| 20260904085028 | 52 | 0 | 0.0 | 0.0 | 0.00 | 0.00 | 0.00 | 67 | 1009.3 |
| 20260904084545 | 52 | 0 | 0.0 | 0.9 | 0.00 | 0.00 | 0.00 | 67 | 1009.3 |
| 20260904084025 | 52 | 0 | 0.0 | 1.7 | 0.00 | 0.00 | 0.00 | 67 | 1009.3 |
| 20260904083525 | 52 | 0 | 0.0 | 1.7 | 0.00 | 0.00 | 0.00 | 67 | 1009.4 |
| 20260904083050 | 52 | 0 | 0.0 | 1.7 | 0.00 | 0.00 | 0.00 | 69 | 1009.5 |
| 20260904082527 | 53 | 0 | 0.0 | 1.7 | 0.00 | 0.00 | 0.00 | 68 | 1009.7 |
| 20260904082026 | 53 | 302 | 0.0 | 2.6 | 0.00 | 0.00 | 0.00 | 68 | 1009.6 |
| 20260904081605 | 53 | 0 | 0.9 | 2.6 | 0.00 | 0.00 | 0.00 | 67 | 1009.6 |
| 20260904081024 | 53 | 76 | 0.9 | 2.6 | 0.00 | 0.00 | 0.00 | 68 | 1009.7 |
| 20260904080524 | 53 | 0 | 0.0 | 0.0 | 0.00 | 0.00 | 0.00 | 67 | 1009.5 |
| 20260904080047 | 53 | 0 | 0.0 | 0.0 | 0.00 | 0.00 | 0.00 | 66 | 1009.7 |
| 20260904075525 | 54 | 0 | 0.0 | 0.0 | 0.00 | 0.00 | 0.00 | 66 | 1009.7 |
| 20260904075026 | 54 | 0 | 0.0 | 0.0 | 0.00 | 0.00 | 0.00 | 67 | 1009.8 |
| 20260904074606 | 54 | 0 | 0.0 | 0.0 | 0.00 | 0.00 | 0.00 | 66 | 1009.8 |
| 20260904074024 | 54 | 0 | 0.0 | 0.0 | 0.00 | 0.00 | 0.00 | 66 | 1009.7 |